Time,TemperatureF,DewpointF,PressureIn,WindDirection,WindDirectionDegrees,WindSpeedMPH,WindSpeedGustMPH,Humidity,HourlyPrecipIn,Conditions,Clouds,dailyrainin,SoftwareType,DateUTC
2013-01-28 00:00:00,58.0,47.9,27.35,NNE,23,0.0,0.0,69,0.00,,,0.00,WUHU216HW,2013-01-28 07:00:00,
2013-01-28 00:05:00,58.0,47.9,27.35,NNE,23,0.0,0.0,69,0.00,,,0.00,WUHU216HW,2013-01-28 07:05:00,
2013-01-28 00:10:00,58.0,47.9,27.35,NNE,23,0.0,0.0,69,0.00,,,0.00,WUHU216HW,2013-01-28 07:10:00,
2013-01-28 00:30:00,57.4,47.7,27.35,ENE,68,0.0,0.0,70,0.00,,,0.00,WUHU216HW,2013-01-28 07:30:00,
2013-01-28 00:35:00,57.4,47.7,27.35,ENE,68,0.0,0.0,70,0.00,,,0.00,WUHU216HW,2013-01-28 07:35:00,
2013-01-28 01:00:00,57.1,48.1,27.34,SW,225,0.0,0.0,72,0.00,,,0.00,WUHU216HW,2013-01-28 08:00:00,
2013-01-28 01:05:00,57.1,48.1,27.34,SW,225,0.0,0.0,72,0.00,,,0.00,WUHU216HW,2013-01-28 08:05:00,
2013-01-28 01:10:00,57.1,48.1,27.34,SW,225,0.0,0.0,72,0.00,,,0.00,WUHU216HW,2013-01-28 08:10:00,
2013-01-28 01:30:00,56.9,47.9,27.34,SE,135,0.0,0.0,72,0.00,,,0.00,WUHU216HW,2013-01-28 08:30:00,
2013-01-28 01:35:00,56.9,47.9,27.34,SE,135,0.0,0.0,72,0.00,,,0.00,WUHU216HW,2013-01-28 08:35:00,
2013-01-28 02:00:00,56.5,48.0,27.34,East,90,0.0,0.0,73,0.00,,,0.00,WUHU216HW,2013-01-28 09:00:00,
2013-01-28 02:05:00,56.5,48.0,27.34,East,90,0.0,0.0,73,0.00,,,0.00,WUHU216HW,2013-01-28 09:05:00,
2013-01-28 02:30:00,56.2,48.3,27.34,North,0,0.0,0.0,75,0.00,,,0.00,WUHU216HW,2013-01-28 09:30:00,
2013-01-28 02:35:00,56.2,48.0,27.34,North,0,0.0,0.0,74,0.00,,,0.00,WUHU216HW,2013-01-28 09:35:00,
2013-01-28 03:00:00,56.0,48.2,27.34,West,270,0.4,0.4,75,0.00,,,0.00,WUHU216HW,2013-01-28 10:00:00,
2013-01-28 03:05:00,56.0,48.2,27.34,West,270,0.4,0.4,75,0.00,,,0.00,WUHU216HW,2013-01-28 10:05:00,
2013-01-28 03:30:00,56.3,47.8,27.34,WSW,248,0.2,0.2,73,0.00,,,0.00,WUHU216HW,2013-01-28 10:30:00,
2013-01-28 03:35:00,56.3,47.8,27.34,WSW,248,0.0,0.2,73,0.00,,,0.00,WUHU216HW,2013-01-28 10:35:00,
2013-01-28 04:00:00,56.3,46.7,27.33,West,270,1.8,1.8,70,0.00,,,0.00,WUHU216HW,2013-01-28 11:00:00,
2013-01-28 04:05:00,56.3,46.7,27.33,SW,225,1.3,1.8,70,0.00,,,0.00,WUHU216HW,2013-01-28 11:05:00,
2013-01-28 04:10:00,56.3,46.7,27.33,SW,225,1.3,1.8,70,0.00,,,0.00,WUHU216HW,2013-01-28 11:10:00,
2013-01-28 04:30:00,56.2,46.2,27.33,SW,225,1.8,1.8,69,0.00,,,0.00,WUHU216HW,2013-01-28 11:30:00,
2013-01-28 04:35:00,56.2,46.2,27.33,NW,315,1.8,1.8,69,0.00,,,0.00,WUHU216HW,2013-01-28 11:35:00,
2013-01-28 05:00:00,56.2,45.7,27.32,West,270,2.7,2.7,68,0.00,,,0.00,WUHU216HW,2013-01-28 12:00:00,
2013-01-28 05:05:00,56.2,45.7,27.32,SW,225,2.0,2.7,68,0.00,,,0.00,WUHU216HW,2013-01-28 12:05:00,
2013-01-28 05:10:00,56.2,45.7,27.32,SW,225,2.0,2.7,68,0.00,,,0.00,WUHU216HW,2013-01-28 12:10:00,
2013-01-28 05:30:00,56.2,45.7,27.32,SW,225,1.6,1.6,68,0.00,,,0.00,WUHU216HW,2013-01-28 12:30:00,
2013-01-28 05:35:00,56.2,45.7,27.32,SW,225,1.6,1.6,68,0.00,,,0.00,WUHU216HW,2013-01-28 12:35:00,
2013-01-28 05:40:00,56.2,45.7,27.32,SW,225,1.6,1.6,68,0.00,,,0.00,WUHU216HW,2013-01-28 12:40:00,
2013-01-28 06:00:00,56.0,45.5,27.33,SW,225,2.5,2.5,68,0.00,,,0.00,WUHU216HW,2013-01-28 13:00:00,
2013-01-28 06:05:00,56.0,45.5,27.33,SSW,203,2.5,2.5,68,0.00,,,0.00,WUHU216HW,2013-01-28 13:05:00,
2013-01-28 06:30:00,55.8,45.8,27.33,WSW,248,0.7,0.7,69,0.00,,,0.00,WUHU216HW,2013-01-28 13:30:00,
2013-01-28 06:35:00,55.8,45.8,27.33,SW,225,0.4,0.7,69,0.00,,,0.00,WUHU216HW,2013-01-28 13:35:00,
2013-01-28 07:00:00,55.6,45.6,27.34,WSW,248,1.1,1.1,69,0.00,,,0.00,WUHU216HW,2013-01-28 14:00:00,
2013-01-28 07:05:00,55.6,45.6,27.34,WSW,248,1.6,1.6,69,0.00,,,0.00,WUHU216HW,2013-01-28 14:05:00,
2013-01-28 07:30:00,55.6,45.6,27.34,SW,225,0.7,0.7,69,0.00,,,0.00,WUHU216HW,2013-01-28 14:30:00,
2013-01-28 07:35:00,55.6,45.6,27.34,SSW,203,0.2,0.7,69,0.00,,,0.00,WUHU216HW,2013-01-28 14:35:00,
2013-01-28 08:00:00,55.4,45.5,27.35,SW,225,1.8,1.8,69,0.00,,,0.00,WUHU216HW,2013-01-28 15:00:00,
2013-01-28 08:05:00,55.6,45.6,27.35,WSW,248,1.1,1.8,69,0.00,,,0.00,WUHU216HW,2013-01-28 15:05:00,
2013-01-28 08:30:00,55.6,46.1,27.35,West,270,2.9,2.9,70,0.00,,,0.00,WUHU216HW,2013-01-28 15:30:00,
2013-01-28 08:35:00,55.6,46.1,27.35,West,270,2.9,2.9,70,0.00,,,0.00,WUHU216HW,2013-01-28 15:35:00,
2013-01-28 09:00:00,55.4,46.3,27.35,WSW,248,4.9,4.9,71,0.00,,,0.00,WUHU216HW,2013-01-28 16:00:00,
2013-01-28 09:05:00,55.3,46.1,27.35,WSW,248,5.1,5.1,71,0.00,,,0.00,WUHU216HW,2013-01-28 16:05:00,
2013-01-28 09:30:00,55.1,43.9,27.36,WSW,248,4.7,4.7,66,0.00,,,0.00,WUHU216HW,2013-01-28 16:30:00,
2013-01-28 09:35:00,55.1,43.9,27.36,WSW,248,6.9,6.9,66,0.00,,,0.00,WUHU216HW,2013-01-28 16:35:00,
2013-01-28 10:00:00,54.5,44.6,27.35,West,270,4.9,4.9,69,0.01,,,0.00,WUHU216HW,2013-01-28 17:00:00,
2013-01-28 10:05:00,54.5,45.0,27.35,West,270,3.4,4.9,70,0.01,,,0.02,WUHU216HW,2013-01-28 17:05:00,
2013-01-28 10:30:00,54.7,46.3,27.36,WSW,248,3.4,3.4,73,0.02,,,0.02,WUHU216HW,2013-01-28 17:30:00,
2013-01-28 10:35:00,54.7,46.3,27.36,SSW,203,4.3,4.3,73,0.02,,,0.03,WUHU216HW,2013-01-28 17:35:00,
2013-01-28 11:00:00,55.6,44.4,27.35,WSW,248,7.6,7.6,66,0.01,,,0.03,WUHU216HW,2013-01-28 18:00:00,
2013-01-28 11:05:00,55.6,44.4,27.35,WSW,248,5.1,7.6,66,0.01,,,0.03,WUHU216HW,2013-01-28 18:05:00,
2013-01-28 11:10:00,55.6,44.4,27.35,WSW,248,5.1,6.7,66,0.01,,,0.03,WUHU216HW,2013-01-28 18:10:00,
2013-01-28 11:30:00,51.7,45.0,27.37,West,270,1.8,1.8,78,0.03,,,0.03,WUHU216HW,2013-01-28 18:30:00,
2013-01-28 11:35:00,51.7,45.0,27.37,West,270,1.8,1.8,78,0.03,,,0.06,WUHU216HW,2013-01-28 18:35:00,
2013-01-28 11:40:00,51.7,45.0,27.37,West,270,1.8,1.8,78,0.03,,,0.06,WUHU216HW,2013-01-28 18:40:00,
2013-01-28 12:00:00,52.9,44.6,27.37,West,270,4.7,4.7,73,0.03,,,0.06,WUHU216HW,2013-01-28 19:00:00,
2013-01-28 12:05:00,52.9,44.6,27.37,West,270,4.3,4.7,73,0.03,,,0.06,WUHU216HW,2013-01-28 19:05:00,
2013-01-28 12:10:00,52.9,44.6,27.37,West,270,4.3,4.7,73,0.03,,,0.06,WUHU216HW,2013-01-28 19:10:00,
2013-01-28 12:30:00,54.4,44.5,27.35,SW,225,2.5,2.5,69,0.00,,,0.06,WUHU216HW,2013-01-28 19:30:00,
2013-01-28 12:35:00,54.2,44.3,27.35,South,180,2.9,2.9,69,0.00,,,0.06,WUHU216HW,2013-01-28 19:35:00,
2013-01-28 13:00:00,54.9,42.9,27.34,WSW,248,2.0,2.0,64,0.00,,,0.06,WUHU216HW,2013-01-28 20:00:00,
2013-01-28 13:05:00,54.9,42.9,27.34,WSW,248,5.6,5.6,64,0.00,,,0.06,WUHU216HW,2013-01-28 20:05:00,
2013-01-28 13:10:00,54.9,42.9,27.34,WSW,248,5.6,5.6,64,0.00,,,0.06,WUHU216HW,2013-01-28 20:10:00,
2013-01-28 13:30:00,51.8,41.7,27.34,SW,225,5.4,5.4,68,0.00,,,0.06,WUHU216HW,2013-01-28 20:30:00,
2013-01-28 13:35:00,51.8,41.7,27.34,WSW,248,5.4,5.4,68,0.00,,,0.06,WUHU216HW,2013-01-28 20:35:00,
2013-01-28 14:00:00,51.8,41.7,27.33,WNW,293,4.9,4.9,68,0.00,,,0.06,WUHU216HW,2013-01-28 21:00:00,
2013-01-28 14:05:00,51.7,41.5,27.33,WNW,293,8.1,8.1,68,0.00,,,0.06,WUHU216HW,2013-01-28 21:05:00,
2013-01-28 14:10:00,51.7,41.5,27.33,WNW,293,8.1,8.1,68,0.00,,,0.06,WUHU216HW,2013-01-28 21:10:00,
2013-01-28 14:30:00,50.9,42.0,27.33,West,270,4.5,4.5,71,0.00,,,0.06,WUHU216HW,2013-01-28 21:30:00,
2013-01-28 14:35:00,51.1,42.1,27.33,West,270,4.5,4.5,71,0.00,,,0.06,WUHU216HW,2013-01-28 21:35:00,
2013-01-28 15:00:00,51.1,38.1,27.34,WSW,248,9.2,9.2,61,0.00,,,0.06,WUHU216HW,2013-01-28 22:00:00,
2013-01-28 15:05:00,51.1,38.1,27.34,West,270,9.6,9.6,61,0.00,,,0.06,WUHU216HW,2013-01-28 22:05:00,
2013-01-28 15:10:00,51.1,38.1,27.34,West,270,9.6,9.6,61,0.00,,,0.06,WUHU216HW,2013-01-28 22:10:00,
2013-01-28 15:30:00,49.1,35.9,27.35,West,270,7.6,7.6,60,0.00,,,0.06,WUHU216HW,2013-01-28 22:30:00,
2013-01-28 15:35:00,49.0,35.7,27.36,West,270,8.3,8.3,60,0.00,,,0.06,WUHU216HW,2013-01-28 22:35:00,
2013-01-28 16:00:00,48.8,36.7,27.35,SW,225,3.4,3.4,63,0.01,,,0.06,WUHU216HW,2013-01-28 23:00:00,
2013-01-28 16:05:00,48.8,36.7,27.35,WSW,248,4.3,4.3,63,0.01,,,0.07,WUHU216HW,2013-01-28 23:05:00,
2013-01-28 16:10:00,48.8,36.7,27.35,WSW,248,4.3,4.3,63,0.01,,,0.07,WUHU216HW,2013-01-28 23:10:00,
2013-01-28 16:30:00,50.4,35.7,27.34,West,270,5.4,5.4,57,0.01,,,0.07,WUHU216HW,2013-01-28 23:30:00,
2013-01-28 16:35:00,50.6,35.4,27.34,West,270,2.9,5.4,56,0.01,,,0.07,WUHU216HW,2013-01-28 23:35:00,
2013-01-28 17:00:00,50.8,33.3,27.33,WSW,248,4.7,4.7,51,0.00,,,0.07,WUHU216HW,2013-01-29 00:00:00,
2013-01-28 17:05:00,50.8,33.3,27.33,WNW,293,3.8,5.4,51,0.00,,,0.07,WUHU216HW,2013-01-29 00:05:00,
2013-01-28 17:10:00,50.8,33.3,27.33,WNW,293,3.8,5.4,51,0.00,,,0.07,WUHU216HW,2013-01-29 00:10:00,
2013-01-28 17:30:00,50.0,32.7,27.33,SW,225,3.6,3.6,51,0.00,,,0.07,WUHU216HW,2013-01-29 00:30:00,
2013-01-28 17:35:00,50.0,32.7,27.33,WSW,248,7.4,7.4,51,0.00,,,0.07,WUHU216HW,2013-01-29 00:35:00,
2013-01-28 18:00:00,49.3,31.5,27.33,WSW,248,4.0,4.0,50,0.00,,,0.07,WUHU216HW,2013-01-29 01:00:00,
2013-01-28 18:05:00,49.3,31.5,27.33,SW,225,3.1,4.0,50,0.00,,,0.07,WUHU216HW,2013-01-29 01:05:00,
2013-01-28 18:10:00,49.3,31.5,27.33,SW,225,3.1,4.0,50,0.00,,,0.07,WUHU216HW,2013-01-29 01:10:00,
2013-01-28 18:30:00,49.3,30.4,27.32,NW,315,3.6,3.6,48,0.00,,,0.07,WUHU216HW,2013-01-29 01:30:00,
2013-01-28 18:35:00,49.3,30.4,27.33,WSW,248,5.4,5.4,48,0.00,,,0.07,WUHU216HW,2013-01-29 01:35:00,
2013-01-28 18:40:00,49.3,30.4,27.33,WSW,248,5.4,5.4,48,0.00,,,0.07,WUHU216HW,2013-01-29 01:40:00,
2013-01-28 19:00:00,49.0,30.1,27.35,SW,225,1.3,1.3,48,0.00,,,0.07,WUHU216HW,2013-01-29 02:00:00,
2013-01-28 19:05:00,49.0,30.1,27.35,SW,225,1.3,1.3,48,0.00,,,0.07,WUHU216HW,2013-01-29 02:05:00,
2013-01-28 19:10:00,49.0,30.1,27.35,SW,225,1.3,1.3,48,0.00,,,0.07,WUHU216HW,2013-01-29 02:10:00,
2013-01-28 19:30:00,48.2,30.9,27.36,SW,225,2.5,2.5,51,0.00,,,0.07,WUHU216HW,2013-01-29 02:30:00,
2013-01-28 19:35:00,48.2,30.9,27.36,WNW,293,3.6,3.6,51,0.00,,,0.07,WUHU216HW,2013-01-29 02:35:00,
2013-01-28 20:00:00,48.6,30.8,27.36,SSW,203,2.0,2.0,50,0.00,,,0.07,WUHU216HW,2013-01-29 03:00:00,
2013-01-28 20:05:00,48.4,30.6,27.36,WNW,293,4.5,4.5,50,0.00,,,0.07,WUHU216HW,2013-01-29 03:05:00,
2013-01-28 20:10:00,48.4,30.6,27.36,WNW,293,4.5,4.5,50,0.00,,,0.07,WUHU216HW,2013-01-29 03:10:00,
2013-01-28 20:30:00,48.4,30.1,27.37,WSW,248,6.0,6.0,49,0.00,,,0.07,WUHU216HW,2013-01-29 03:30:00,
2013-01-28 20:35:00,48.4,30.1,27.37,WSW,248,3.8,6.0,49,0.00,,,0.07,WUHU216HW,2013-01-29 03:35:00,
2013-01-28 21:00:00,48.2,29.9,27.37,WSW,248,2.7,2.7,49,0.00,,,0.07,WUHU216HW,2013-01-29 04:00:00,
2013-01-28 21:05:00,48.2,29.9,27.37,West,270,4.3,4.3,49,0.00,,,0.07,WUHU216HW,2013-01-29 04:05:00,
2013-01-28 21:30:00,48.1,29.2,27.37,WSW,248,4.7,4.7,48,0.00,,,0.07,WUHU216HW,2013-01-29 04:30:00,
2013-01-28 21:35:00,48.1,29.2,27.37,SW,225,2.9,4.7,48,0.00,,,0.07,WUHU216HW,2013-01-29 04:35:00,
2013-01-28 22:00:00,46.8,31.4,27.37,SW,225,1.6,1.8,55,0.00,,,0.07,WUHU216HW,2013-01-29 05:00:00,
2013-01-28 22:03:00,46.8,31.4,27.37,SW,225,1.6,1.8,55,0.00,,,0.07,WUHU216HW,2013-01-29 05:03:00,
2013-01-28 22:08:00,46.8,31.4,27.37,SW,225,1.6,1.8,55,0.00,,,0.07,WUHU216HW,2013-01-29 05:08:00,
2013-01-28 22:30:00,47.2,32.7,27.37,SSW,203,1.3,1.3,57,0.00,,,0.07,WUHU216HW,2013-01-29 05:30:00,
2013-01-28 22:35:00,47.2,32.7,27.37,SW,225,2.7,2.7,57,0.00,,,0.07,WUHU216HW,2013-01-29 05:35:00,
2013-01-28 23:00:00,46.4,32.0,27.37,WSW,248,3.4,3.4,57,0.00,,,0.07,WUHU216HW,2013-01-29 06:00:00,
2013-01-28 23:05:00,46.4,32.0,27.37,West,270,2.5,3.4,57,0.00,,,0.07,WUHU216HW,2013-01-29 06:05:00,
2013-01-28 23:10:00,46.4,32.0,27.37,West,270,2.5,3.4,57,0.00,,,0.07,WUHU216HW,2013-01-29 06:10:00,
2013-01-28 23:30:00,45.9,31.1,27.38,NNW,338,2.5,2.5,56,0.00,,,0.07,WUHU216HW,2013-01-29 06:30:00,
2013-01-28 23:35:00,45.9,31.1,27.38,NW,315,2.9,2.9,56,0.00,,,0.07,WUHU216HW,2013-01-29 06:35:00,